FW1801 Weather Reports


time (UTC)temp
C
wind
direction
speed
KPH
gust
KPH
rain 1hr
cm
rain 24hr
cm
rain mn
cm
humidity
%
barometer
mb
20260509211553 13 234 1.6 6.4 0.00 1.14 1.14 91 1009.0
20260509210047 12 236 1.6 9.7 0.00 1.14 1.14 94 1009.1
20260509204542 11 215 3.2 11.3 0.03 1.14 1.14 94 1009.2
20260509203102 11 141 1.6 4.8 0.03 1.14 1.14 94 1009.4
20260509201540 11 157 3.2 9.7 0.05 1.14 1.14 94 1009.5
20260509200041 11 182 3.2 8.0 0.08 1.14 1.14 94 1009.6
20260509194539 11 164 1.6 6.4 0.08 1.12 1.12 95 1009.8
20260509193034 11 129 0.0 4.8 0.10 1.12 1.12 94 1009.9
20260509191534 11 129 0.0 4.8 0.15 1.09 1.09 94 1010.0
20260509190032 11 159 0.0 4.8 0.15 1.07 1.07 94 1010.0
20260509184534 11 181 0.0 3.2 0.15 1.04 1.04 94 1010.1
20260509183031 11 179 0.0 3.2 0.13 1.02 1.02 94 1010.0
20260509181532 11 110 1.6 4.8 0.05 0.94 0.94 94 1010.0
20260509180029 11 198 0.0 4.8 0.03 0.91 0.91 94 1010.0
20260509174529 11 149 1.6 4.8 0.00 0.89 0.89 94 1009.9
20260509173127 11 128 1.6 4.8 0.00 0.89 0.89 95 1010.0
20260509171525 11 53 1.6 6.4 0.00 0.89 0.89 95 1010.0
20260509170023 10 107 0.0 6.4 0.00 0.89 0.89 95 1009.9
20260509164522 10 145 1.6 6.4 0.03 0.89 0.89 95 1010.0
20260509163020 10 170 3.2 9.7 0.03 0.89 0.89 95 1010.0
20260509161520 10 193 1.6 4.8 0.03 0.89 0.89 96 1010.3
20260509160019 10 193 1.6 6.4 0.03 0.89 0.89 96 1010.4
20260509154521 10 55 0.0 4.8 0.03 0.86 0.86 96 1010.4
20260509153014 10 53 0.0 3.2 0.05 0.86 0.86 96 1010.6
20260509151510 10 54 1.6 4.8 0.08 0.86 0.86 96 1010.7
20260509150007 10 55 1.6 6.4 0.10 0.86 0.86 96 1010.9
20260509144505 10 40 0.0 3.2 0.10 0.84 0.84 96 1011.1
20260509143006 10 39 0.0 3.2 0.08 0.81 0.81 96 1011.1
20260509141507 10 39 0.0 3.2 0.08 0.79 0.79 96 1011.1
20260509140000 10 38 0.0 1.6 0.08 0.76 0.76 96 1011.2
20260509134559 9 41 0.0 1.6 0.05 0.71 0.71 96 1011.1
20260509133101 9 360 0.0 1.6 0.10 0.71 0.71 96 1011.2
20260509131554 8 36 0.0 3.2 0.10 0.71 0.71 96 1011.3
20260509130100 8 36 0.0 3.2 0.13 0.69 0.69 96 1011.5
20260509124550 8 167 0.0 3.2 0.18 0.69 0.69 96 1011.5
20260509123051 8 167 0.0 1.6 0.20 0.64 0.64 96 1011.6
20260509121546 8 167 0.0 1.6 0.23 0.61 0.61 96 1011.7
20260509120051 8 167 0.0 3.2 0.20 0.56 0.56 95 1011.8
20260509114545 8 167 0.0 1.6 0.18 0.51 0.51 95 1012.0
20260509113043 8 167 0.0 3.2 0.18 0.43 0.43 95 1011.9
20260509111542 8 167 0.0 3.2 0.20 0.38 0.38 95 1011.7
20260509110038 8 167 0.0 1.6 0.23 0.36 0.36 95 1011.7
20260509104536 8 167 0.0 3.2 0.20 0.33 0.33 95 1011.6
20260509103035 8 167 0.0 1.6 0.13 0.25 0.25 95 1011.8
20260509101538 7 167 0.0 1.6 0.05 0.15 0.15 95 1011.8
20260509100035 7 161 0.0 1.6 0.03 0.13 0.13 95 1011.7
20260509094534 7 58 0.0 1.6 0.03 0.13 0.13 95 1011.7
20260509093033 7 57 0.0 1.6 0.03 0.13 0.13 95 1011.7
20260509091532 7 57 0.0 3.2 0.00 0.10 0.10 95 1011.7
20260509090032 7 57 0.0 4.8 0.00 0.10 0.10 95 1011.8
20260509084536 7 58 0.0 4.8 0.03 0.10 0.10 95 1011.9
20260509083036 7 184 0.0 1.6 0.03 0.10 0.10 95 1012.0
20260509081530 7 184 0.0 3.2 0.03 0.10 0.10 94 1012.1
20260509080035 7 184 0.0 4.8 0.03 0.10 0.10 94 1012.4
20260509074526 7 178 0.0 3.2 0.00 0.08 0.08 94 1012.5
20260509073024 7 178 0.0 1.6 0.00 0.08 0.08 94 1012.4
20260509071523 7 178 0.0 1.6 0.03 0.08 0.08 93 1012.3
20260509070022 7 178 0.0 1.6 0.05 0.08 0.08 93 1012.4
20260509064523 7 178 0.0 3.2 0.08 0.08 0.08 93 1012.3
20260509063017 7 178 0.0 0.0 0.08 0.08 0.08 92 1012.5
20260509061515 7 178 0.0 0.0 0.05 0.05 0.05 91 1012.8
20260509060013 6 178 0.0 0.0 0.03 0.03 0.03 90 1013.0
20260509054511 6 178 0.0 0.0 0.00 0.00 0.00 89 1013.1
20260509053009 6 178 0.0 0.0 0.00 0.00 0.00 88 1013.0
20260509051508 6 178 0.0 0.0 0.00 0.00 0.00 87 1013.1
20260509050008 6 178 0.0 0.0 0.00 0.00 0.00 87 1013.0
20260509044507 6 178 0.0 0.0 0.00 0.00 0.00 87 1013.2
20260509043005 6 178 0.0 0.0 0.00 0.00 0.00 87 1013.2
20260509041507 6 178 0.0 0.0 0.00 0.00 0.00 86 1013.5
20260509040001 5 178 0.0 0.0 0.00 0.00 0.00 86 1013.5
20260509034501 5 178 0.0 0.0 0.00 0.00 0.00 86 1013.4
20260509033101 5 178 0.0 0.0 0.00 0.00 0.00 85 1013.4
20260509031600 5 178 0.0 0.0 0.00 0.00 0.00 85 1013.3
20260509030100 5 178 0.0 1.6 0.00 0.00 0.00 85 1013.5
20260509024601 5 178 0.0 0.0 0.00 0.00 0.00 84 1013.6
20260509024501 5 178 0.0 0.0 0.00 0.00 0.00 84 1013.5
20260509023104 5 178 0.0 3.2 0.00 0.00 0.00 83 1013.5
20260509021558 5 178 0.0 3.2 0.00 0.00 0.00 82 1013.4
20260509020059 6 178 0.0 1.6 0.00 0.00 0.00 81 1013.5
20260509014557 6 178 1.6 3.2 0.00 0.00 0.00 80 1013.5
20260509013101 6 178 0.0 4.8 0.00 0.00 0.00 78 1013.4
20260509011556 6 178 0.0 3.2 0.00 0.00 0.00 77 1013.2
20260509010055 7 178 0.0 3.2 0.00 0.00 0.00 78 1013.0
20260509004555 7 178 1.6 3.2 0.00 0.00 0.00 75 1012.7
20260509003104 8 178 1.6 3.2 0.00 0.00 0.00 74 1012.5
20260509001554 8 178 0.0 3.2 0.00 0.00 0.00 72 1012.3
20260509000104 9 178 0.0 3.2 0.00 0.00 0.00 69 1012.1
20260508234654 10 178 0.0 3.2 0.00 0.00 0.00 66 1011.9
20260508233053 11 178 0.0 1.6 0.00 0.00 0.00 63 1011.8
20260508231551 12 178 0.0 3.2 0.00 0.00 0.00 53 1011.7
20260508230104 12 178 0.0 4.8 0.00 0.00 0.00 49 1011.7
20260508224550 13 113 0.0 4.8 0.00 0.00 0.00 50 1011.8
20260508223050 13 202 0.0 4.8 0.00 0.00 0.00 49 1011.7
20260508221550 16 147 0.0 4.8 0.00 0.00 0.00 45 1011.6
20260508220049 16 63 0.0 4.8 0.00 0.00 0.00 45 1011.6
20260508214548 14 360 0.0 8.0 0.00 0.00 0.00 48 1011.8
20260508213047 14 344 1.6 17.7 0.00 0.00 0.00 45 1012.0